Время (UTC), дата Ветер
(°,м/с) 
Видим.   Явления Облачность Т
(°С)
Тd
(°С)
f(%) Тe
(°С)
Pmin
(гПа)
dP
(гПа)
Po
(мм)
O2
(г/м3)
Тmin Tmax R s Состояние
почвы
00 01.09.10 090 (В) 10 км    ясно 
+25.4 +17.6 62 +39  1000.7  -0.3  748  272           
03 01.09.10 100 (В) 10 км    1/0 верхняя 
[Ci fib]
+24.4 +15.9 59 +35  999.9  -0.8  747  273           
06 01.09.10 110 (В) 10 км    8/3 1000 м средняя 
[Sc|Ac cast]
+27.2 +15.4 48 +37  1000.2  0.3  748  271  +23.8         
12 01.09.10 140 (ЮВ) 10 км    ясно 
+37.4 +17 30 +50  998.8  -0.8  747  261           
15 01.09.10 150 (ЮВ) 10 км    ясно 
+35.8 +18.4 36 +51  998.1  -0.7  746  262           
18 01.09.10 280 (З) 10 км    ясно 
+30.5 +16.9 44 +43  998.8  0.6  747  267    +38.5       
21 01.09.10 020 (С) 63  10 км    1/0 средняя 
[Ac trans]
+21.7   1001.5  2.7  749             
00 02.09.10 280 (З) 10 км    9/9 1000 м 
[Sc]
+24.1 +20.8 82 +45  1004.1  2.6  751  273           
03 02.09.10 320 (СЗ) 10 км    10/10 600 м кучево-дожд. 
[Cb cap]
+22 +18.1 79 +36  1006.8  2.6  753  276           
06 02.09.10 270 (З) 10 км  слаб. ливневой дождь  10/10 1000 м кучево-дожд. 
[Cb cap]
+21.5 +17.7 79 +35  1008.7  1.9  754  278  +21.5         
09 02.09.10 320 (СЗ) 10 км  {ливн. осадки}  10/10 1000 м кучево-дожд. 
[Cb cap]
+22 +14.8 64 +30  1010.1  1.4  755  279           
12 02.09.10 160 (Ю) 10 км  {ливн. осадки}  10/8 1000 м кучево-дожд., средняя 
[Cb cap|Ac und]
+22.8 +14.7 60 +31  1012  1.9  756  278           
15 02.09.10 210 (ЮЗ) 10 км    8/4 1000 м средняя, верхняя 
[Sc|Ac trans|Ci fib]
+22.7 +14.4 59 +30  1013.1  1.1  757  279           
18 02.09.10 240 (ЮЗ) 10 км    4/0 средняя 
[Ac trans]
+21.8 +14.3 62 +29  1015  1.9  759  280    +23.4  0.6     
21 02.09.10 220 (ЮЗ) 10 км    8/8 1000 м 
[Sc]
+20.1 +14 68 +27  1016.4  1.4  760  282           
00 03.09.10 200 (Ю) 10 км    3/3 1000 м 
[Sc]
+19 +14.1 73 +28  1017.7  1.3  761  284           
03 03.09.10 240 (ЮЗ) 10 км    3/3 1000 м 
[Sc]
+18.4 +13.4 73 +25  1019.2  1.4  762  285           
06 03.09.10 270 (З) 10 км    1/0 средняя 
[Ac cast]
+22.9 +11.5 49 +26  1020.8  1.6  763  282  +18.2         
09 03.09.10 330 (СЗ) 10 км    1/1 1000 м 
[Cu hum]
+25.6 +10.2 38 +27  1021.1  0.4  763  279           
12 03.09.10 070 (В) 10 км    4/4 1000 м 
[Cu med, cong]
+26.3 +10.7 38 +28  1020.5  -0.6  763  278           
15 03.09.10 030 (СВ) 10 км    1/1 1000 м 
[Sc diur, vesp]
+26.4 +9.7 35 +27  1019.9  0.6  762  278           
18 03.09.10 020 (С) 10 км    3/0 средняя 
[Ac trans]
+21.4 +7.3 40 +21  1020.8  0.8  763  284    +27.7       
21 03.09.10 030 (СВ) 10 км    ясно 
+19.2 +9.2 52 +20  1020.8  763  286           
00 04.09.10 340 (С) н/о    н/о 
+17.3 +6.9 50 +19  1019.3  -1.1  762  288           
03 04.09.10 тихо ()   10 км    8/4 1000 м средняя 
[Sc|Ac cast]
+17 +9.8 63 +18  1019.1  -0.5  762  287           
06 04.09.10 090 (В) 10 км    3/0 средняя 
[Ac cast]
+21.4 +8.2 43 +21  1018.5  -0.6  761  283  +17         
09 04.09.10 100 (В) 10 км    8/0 средняя 
[Ac trans]
+26.4 +12.9 43 +31  1016.5  -1.9  760  277           
12 04.09.10 040 (СВ) 10 км    3/0 средняя 
[Ac trans]
+30.1 +14.1 38 +37  1014.7  -1.7  759  273           
15 04.09.10 120 (ЮВ) 10 км    ясно 
+30.5 +12.2 33 +34  1013.3  -1.4  758  272           
18 04.09.10 050 (СВ) 10 км    ясно 
+26.4 +12.9 43 +31  1013.3  -0.1  757  276    +31.5       
21 04.09.10 060 (СВ) 10 км    ясно 
+23.2 +11 46 +25  1012.8  -0.5  757  279           
00 05.09.10 020 (С) 10 км    ясно 
+21.5 +12.7 57 +26  1012.7  -0.1  757  280           
03 05.09.10 100 (В) 10 км    1/0 средняя 
[Ac trans]
+20.4 +11.1 55 +23  1012.5  -0.2  757  282           
06 05.09.10 120 (ЮВ) 10 км    1/0 средняя 
[Ac trans]
+23.6 +11.8 48 +27  1012.3  -0.2  757  278  +20         
09 05.09.10 320 (СЗ) 10 км    1/1 1000 м 
[Cu hum]
+30.2 +16.9 45 +42  1010.9  -1.3  756  271           
12 05.09.10 210 (ЮЗ) 10 км    8/8 1000 м 
[Sc diur, vesp]
+32.6 +14.1 33 +40  1009.6  -1.3  755  269           
15 05.09.10 290 (З) 10 км    9/9 1000 м 
[Sc diur, vesp]
+30.6 +17.7 46 +44  1009.6  755  270           
18 05.09.10 320 (СЗ) 10 км    8/8 1000 м 
[Sc]
+25.6 +15.4 53 +35  1011.7  756  275    +33.2       
21 05.09.10 240 (ЮЗ) 10 км    ясно 
+22.6 +17.6 73 +36  1012.5  0.8  757  278           
00 06.09.10 250 (З) 10 км    ясно 
+21.2 +16.3 74 +32  1012.9  0.4  757  280           
03 06.09.10 240 (ЮЗ) 10 км    3/3 1000 м 
[Sc]
+20 +16 78 +30  1013.6  0.7  758  281           
06 06.09.10 270 (З) 10 км    ясно 
+22.3 +16 67 +32  1014.2  0.6  758  279  +20         
09 06.09.10 330 (СЗ) 10 км    ясно 
+26.9 +13.5 44 +33  1013.7  -0.5  758  275           
12 06.09.10 280 (З) 10 км    ясно 
+29.9 +12.4 34 +34  1012.2  -1.4  757  273           
15 06.09.10 320 (СЗ) 10 км    ясно 
+28.2 +13.1 39 +34  1012.1  -0.2  757  274           
18 06.09.10 310 (СЗ) 10 км    6/0 средняя, верхняя 
[Ac trans|Cc]
+22.5 +12.9 55 +28  1012.9  0.8  757  279    +30.1       
21 06.09.10 310 (СЗ) 10 км    6/3 1000 м верхняя 
[Sc|Ci fib]
+20.2 +13.6 66 +26  1013  0.1  757  281           
00 07.09.10 250 (З) 10 км    3/0 средняя, верхняя 
[Ac trans|Ci fib]
+18.4 +14.6 79 +28  1012.3  -0.8  757  283           
03 07.09.10 350 (С) 10 км    10/4 1000 м средняя, верхняя 
[Sc|Ac trans|Ci fib]
+17.7 +14 79 +26  1011.8  -0.5  756  283           
06 07.09.10 090 (В) 10 км    5/0 средняя 
[Ac trans]
+22.5 +9.8 44 +23  1011.2  -0.5  756  280  +17.7         
09 07.09.10 100 (В) 10 км    8/1 1500 м средняя 
[Sc diur, vesp|Ac trans]
+24.6 +10.2 40 +26  1010.6  -0.6  755  277           
12 07.09.10 060 (СВ) 10 км    9/4 1500 м средняя 
[Sc|Ac trans]
+28.3 +11 34 +31  1009.8  -0.8  755  274           
15 07.09.10 020 (С) 10 км    10/5 1000 м кучево-дожд., средняя 
[Cb cap|Ac und]
+26.5 +11.7 40 +30  1009.6  -0.2  755  275           
18 07.09.10 080 (В) 10 км    9/6 1000 м кучево-дожд., средняя 
[Cb cap|Ac trans]
+24 +13.8 53 +30  1010.5  0.9  755  277    +28.6       
21 07.09.10 050 (СВ) 10 км    10/4 1500 м средняя 
[Sc|Ac und]
+20.6 +13 62 +26  1011  0.5  756  281           
00 08.09.10 300 (СЗ) 10 км    9/0 средняя 
[Ac trans]
+18.6 +14.1 75 +27  1011.4  0.3  756  282           
03 08.09.10 270 (З) 10 км    1/1 1500 м 
[Sc]
+16.1 +13 82 +21  1013.2  1.8  757  286           
06 08.09.10 300 (СЗ) 10 км    ясно 
+18 +12.2 69 +22  1015.6  2.4  759  285  +15.3         
09 08.09.10 330 (СЗ) 10 км    9/9 1000 м 
[Cu med, cong]
+22.6 +12.6 53 +27  1016.9  1.4  760  280           
12 08.09.10 320 (СЗ) 10 км    9/6 1000 м средняя, верхняя 
[Cu med, cong|Ac cast|Cc]
+25 +11.9 44 +28  1017.2  0.3  760  278           
15 08.09.10 320 (СЗ) 10 км    8/0 средняя, верхняя 
[Ac cast|Cc]
+22.4 +11.5 50 +25  1018  0.8  761  281           
18 08.09.10 010 (С) 10 км    3/0 верхняя 
[Ci fib]
+18.2 +11.9 67 +22  1019.6  1.5  762  286    +25.9       
21 08.09.10 030 (СВ) 10 км    3/0 верхняя 
[Ci fib]
+15 +10.9 77 +18  1019.6  762  289           
00 09.09.10 030 (СВ) 10 км    ясно 
+13 +10.5 85 +14  1020.1  0.4  762  291           
03 09.09.10 090 (В) 10 км    10/0 средняя, верхняя 
[Ac und|Ci]
+11.4 +9.4 87 +12  1021.1  763  294           
06 09.09.10 090 (В) 10 км    10/4 1000 м средняя 
[Sc|Ac und]
+14 +9.3 73 +15  1021.4  0.3  763  291  +11.1         
09 09.09.10 050 (СВ) 10 км    4/0 средняя 
[Ac trans]
+19.8 +9.3 51 +21  1021.2  -0.1  763  285           
12 09.09.10 030 (СВ) 10 км    8/3 1000 м средняя, верхняя 
[Cu hum|Ac trans|Cc]
+21.4 +9.5 47 +22  1021.3  0.1  763  284           
15 09.09.10 030 (СВ) 10 км    4/3 1000 м средняя 
[Sc|Ac trans]
+17.8 +8.2 53 +18  1021.8  0.5  764  288           
18 09.09.10 050 (СВ) 10 км    ясно 
+14 +7.3 64 +15  1023.5  1.6  765  292    +22.2       
21 09.09.10 030 (СВ) 10 км    ясно 
+11.8 +7.3 74 +12  1023.6  0.1  765  294           
00 10.09.10 030 (СВ) 10 км    10/10 1000 м 
[Sc]
+12.2 +7.4 72 +12  1023.3  -0.3  765  294           
03 10.09.10 040 (СВ) 10 км    10/10 1000 м 
[Sc]
+12.4 +6.5 67 +12  1022.8  -0.5  764  294           
06 10.09.10 060 (СВ) 10 км    8/3 1000 м средняя, верхняя 
[Sc|Ac trans|Ci fib]
+14 +5.3 56 +13  1022.9  0.1  764  292  +11         
09 10.09.10 070 (В) 10 км    4/0 средняя, верхняя 
[Ac trans|Ci fib]
+18.7 +7 46 +19  1022  -0.8  764  287           
12 10.09.10 110 (В) 10 км    1/0 средняя, верхняя 
[Ac trans|Ci fib]
+20.4 +5.8 38 +20  1020.6  -1.4  763  285           
15 10.09.10 080 (В) 10 км    ясно 
+20.4 +4.3 35 +20  1019.9  -0.7  762  285           
18 10.09.10 050 (СВ) 10 км    ясно 
+17.8 +3.8 39 +18  1020.4  0.5  763  288    +21.2       
21 10.09.10 080 (В) 10 км    ясно 
+15.4 +4.8 49 +16  1020.3  -0.1  763  290           
00 11.09.10 070 (В) 10 км    ясно 
+14.1 +4.6 53 +14  1019.8  -0.6  762  291           
03 11.09.10 080 (В) 10 км    3/0 верхняя 
[Ci fib]
+14.2 +3.6 49 +14  1019.1  -0.7  762  291           
06 11.09.10 090 (В) 10 км    ясно 
+17.9 +4 40 +18  1018.6  -0.4  761  287  +13.9         
09 11.09.10 100 (В) 10 км    ясно 
+23.4 +5.9 32 +23  1017.3  -1.2  760  281           
12 11.09.10 080 (В) 10 км    ясно 
+25.8 +5.3 27 +26  1016.6  -0.7  760  279           
15 11.09.10 120 (ЮВ) 10 км    ясно 
+25 +5.5 29 +25  1016  -0.6  759  280           
18 11.09.10 080 (В) 10 км    ясно 
+21.5 +5.8 36 +22  1016.4  0.4  760  283    +26.1       
21 11.09.10 080 (В) 10 км    ясно 
+20.2 +7.3 43 +20  1015.6  -0.8  759  284           
00 12.09.10 040 (СВ) 10 км    ясно 
+18.3 +8.9 54 +19  1014.8  -0.9  758  285           
03 12.09.10 090 (В) 10 км    3/0 средняя 
[Ac trans]
+17 +10.3 65 +18  1014.4  -0.4  758  286           
06 12.09.10 090 (В) 10 км    3/0 средняя 
[Ac trans]
+20 +10.9 56 +22  1014.3  758  283  +16.8         
09 12.09.10 100 (В) 10 км    ясно 
+24.8 +11.7 44 +28  1012.9  -1.4  757  278           
12 12.09.10 100 (В) 10 км    ясно 
+27.8 +10 33 +29  1011.4  -1.5  756  275           
15 12.09.10 090 (В) 10 км    ясно 
+28.2 +11.1 35 +31  1009.7  -1.7  755  274           
18 12.09.10 060 (СВ) 10 км    ясно 
+24.8 +10.4 40 +26  1008.9  -0.8  754  277    +29.2       
21 12.09.10 080 (В) 10 км    ясно 
+22.4 +9.4 44 +23  1008.1  -0.8  754  279           
00 13.09.10 090 (В) 10 км    ясно 
+19.6 +10.4 55 +23  1008.2  0.1  754  281           
03 13.09.10 050 (СВ) 10 км    10/8 1000 м средняя 
[Sc|Ac und]
+18.2 +11.9 67 +23  1009  0.7  754  283           
06 13.09.10 070 (В) 10 км    9/8 1000 м средняя, верхняя 
[Sc|Ac trans|Ci fib]
+18.4 +12.7 69 +24  1009  754  282  +18         
09 13.09.10 120 (ЮВ) 10 км    9/5 1500 м средняя 
[Sc|Ac cast]
+20.7 +13.8 65 +27  1009.3  0.4  754  280           
12 13.09.10 090 (В) 10 км    9/4 1000 м средняя 
[Sc|Ac cast]
+24.4 +14.7 55 +32  1009.1  -0.2  754  276           
15 13.09.10 060 (СВ) 10 км    10/6 1000 м средняя 
[Sc|Ac und]
+23 +15.3 62 +32  1009.4  0.3  755  277           
18 13.09.10 060 (СВ) 10 км    6/3 1000 м средняя, верхняя 
[Sc|Ac trans|Ci fib]
+21 +16.2 74 +32  1009.4  755  279    +25.3       
21 13.09.10 060 (СВ) 10 км    8/8 1000 м 
[Sc]
+21 +16.2 74 +32  1009.4  755  279           
00 14.09.10 070 (В) 10 км    10/10 1000 м 
[Sc]
+20.9 +16.1 74 +31  1009.2  -0.2  754  279           
03 14.09.10 070 (В) 10 км    10/10 600 м кучево-дожд. 
[Cb cap]
+20.5 +15.9 75 +31  1009.8  0.6  755  279           
06 14.09.10 060 (СВ) 10 км    10/5 1000 м кучево-дожд., средняя 
[Cb cap|Ac und]
+20 +12 60 +24  1010.9  1.1  756  281  +19.5         
09 14.09.10 070 (В) 10 км    10/8 1000 м кучево-дожд., средняя 
[Cb cap|Ac und]
+21.1 +10.5 51 +23  1011.7  0.8  756  281           
12 14.09.10 120 (ЮВ) 10 км    8/6 1000 м кучево-дожд., средняя 
[Cb cap|Ac trans]
+22.2 +13.8 59 +29  1012.6  0.9  757  279           
15 14.09.10 110 (В) 10 км    10/5 1000 м средняя, верхняя 
[Sc|Ac trans|Ci fib]
+20.2 +13.2 64 +26  1013.8  1.2  758  282           
18 14.09.10 060 (СВ) 10 км    10/5 1000 м средняя, верхняя 
[Sc|Ac trans|Ci fib]
+19.6 +12.5 64 +25  1014.7  0.9  758  283    +22.5       
21 14.09.10 070 (В) 10 км    6/3 1000 м верхняя 
[Sc|Ci fib]
+18.2 +12.8 71 +24  1015  0.2  759  284           
00 15.09.10 070 (В) 10 км    ясно 
+17.3 +9.8 61 +19  1020.8  -0.1  759  286           
03 15.09.10 090 (В) 10 км    8/4 1000 м средняя 
[Sc|Ac trans]
+17.2 +10 63 +19  1015.1  0.2  759  286           
06 15.09.10 080 (В) 10 км    6/0 средняя 
[Ac trans]
+19.4 +9.9 54 +21  1015.2  0.2  759  284  +16.8         
09 15.09.10 120 (ЮВ) 10 км    9/8 1000 м средняя 
[Sc|Ac trans]
+22.3 +10 46 +23  1015  -0.2  759  281           
12 15.09.10 130 (ЮВ) 10 км    10/10 1000 м кучево-дожд. 
[Cb cap]
+22.3 +12.1 52 +26  1014.7  -0.3  758  280           
15 15.09.10 120 (ЮВ) 10 км  {ливн. осадки}  9/8 1000 м кучево-дожд., средняя 
[Cb cap|Ac trans]
+19.2 +15.7 80 +31  1015.2  0.5  759  282           
18 15.09.10 090 (В) 10 км  {ливн. осадки}  9/5 1000 м кучево-дожд., средняя 
[Cb cap|Ac trans]
+18.2 +15.5 84 +28  1015.3  759  283    +23  0.5     
21 15.09.10 130 (ЮВ) 4000 м  слаб. ливневой дождь  10/10 1000 м кучево-дожд. 
[Cb cap]
+17.4 +15.5 89 +27  1015  -0.3  759  284           
00 16.09.10 150 (ЮВ) 10 км  {ливн. осадки}  9/8 1000 м кучево-дожд., средняя 
[Cb cap|Ac trans]
+17.4 +15.9 91 +29  1014.8  -0.2  758  284           
03 16.09.10 тихо ()   10 км    9/9 1000 м кучево-дожд. 
[Cb cap]
+17.6 +15.9 90 +28  1015  0.2  759  284           
06 16.09.10 160 (Ю) 10 км    6/4 1000 м средняя 
[Sc|Ac trans]
+22 +17.2 74 +34  1015.6  0.7  759  279  +17.4       
09 16.09.10 190 (Ю) 10 км    8/8 1000 м 
[Cu med, cong]
+25.4 +15.3 54 +34  1015.3  -0.3  759  277           
12 16.09.10 180 (Ю) 10 км    8/8 1000 м 
[Cu med, cong]
+25.8 +15.2 52 +35  1014.8  -0.5  759  276           
15 16.09.10 210 (ЮЗ) 10 км    3/0 кучево-дожд., верхняя 
[Cb cap|Ci ing]
+24.9 +13.3 48 +30  1014.9  0.1  759  278           
18 16.09.10 220 (ЮЗ) 10 км    ясно 
+21.2 +15.3 69 +30  1015.4  0.5  759  281    +27.7       
21 16.09.10 тихо ()   10 км    ясно 
+18.6 +15.9 84 +29  1015.5  0.1  759  283           
00 17.09.10 230 (ЮЗ) 10 км    ясно 
+16.8 +15.1 90 +27  1015.6  759  285           
03 17.09.10 220 (ЮЗ) 10 км    ясно 
+15.4 +14.3 93 +24  1015.9  0.3  759  287           
06 17.09.10 070 (В) 10 км    ясно 
+20.5 +15.5 73 +30  1015.9  0.1  759  281  +15.4         
09 17.09.10 040 (СВ) 10 км    ясно 
+27 +13.9 45 +34  1014.9  -1  759  275           
12 17.09.10 130 (ЮВ) 10 км    3/1 1000 м верхняя 
[Cu hum|Ci]
+29.6 +12.9 36 +35  1013.6  -1.2  758  273           
15 17.09.10 280 (З) 10 км    8/4 1000 м средняя, верхняя 
[Sc|Ac cast|Ci]
+27.6 +13 41 +33  1013  -0.7  757  275           
18 17.09.10 тихо ()   10 км    6/0 средняя, верхняя 
[Ac trans|Ci fib]
+22.2 +16.1 68 +33  1012.8  -0.2  757  279    +30       
21 17.09.10 270 (З) 10 км    4/0 верхняя 
[Ci fib]
+19.5 +15.2 76 +30  1012.9  0.1  757  282           
00 18.09.10 270 (З) 10 км    ясно 
+17.5 +15 85 +26  1012.9  -0.1  757  284           
03 18.09.10 180 (Ю) 10 км    6/0 средняя 
[Ac cast]
+16.2 +14.3 88 +25  1013.3  0.4  757  285           
06 18.09.10 240 (ЮЗ) 10 км    3/0 верхняя 
[Cc]
+19.7 +15.7 78 +31  1014.2  758  282  +16         
09 18.09.10 240 (ЮЗ) 10 км    3/1 1000 м верхняя 
[Cu hum|Ci fib]
+26.1 +15.2 51 +35  1014  -0.2  758  276           
12 18.09.10 240 (ЮЗ) 10 км    3/1 1000 м верхняя 
[Cu hum|Ci fib]
+29.8 +10.3 30 +31  1013.3  -0.6  758  273           
15 18.09.10 270 (З) 10 км    6/3 1000 м средняя, верхняя 
[Cu med, cong|Ac trans|Ci fib]
+28.1 +11.2 35 +31  1013  -0.4  757  275           
18 18.09.10 310 (СЗ) 10 км    3/0 верхняя 
[Ci fib]
+22.3 +12.5 54 +27  1014.6  1.6  758  280    +30.4       
21 18.09.10 250 (З) 10 км    5/0 верхняя 
[Ci fib]
+19 +13.4 70 +27  1014.8  0.2  759  283           
00 19.09.10 220 (ЮЗ) 10 км    8/3 1000 м средняя, верхняя 
[Sc|Ac trans|Ci fib]
+17.5 +14 80 +26  1014.9  759  284           
03 19.09.10 240 (ЮЗ) 10 км    8/3 1000 м верхняя 
[Sc|Ci fib]
+16.6 +13.2 80 +22  1015  0.1  759  286           
06 19.09.10 230 (ЮЗ) 10 км    3/0 средняя, верхняя 
[Ac trans|Cc]
+21.4 +14.4 64 +29  1015.3  0.4  759  281  +16         
09 19.09.10 210 (ЮЗ) 10 км    ясно 
+27.3 +11.7 38 +31  1015  -0.3  759  276           
12 19.09.10 280 (З) 10 км    3/3 1500 м 
[Sc diur, vesp]
+29.3 +10.3 31 +31  1013.8  -1.1  758  274           
15 19.09.10 320 (СЗ) 10 км    10/0 верхняя 
[Cs]
+27.4 +12.5 40 +32  1013.9  758  275           
18 19.09.10 360 (С) 10 км    10/0 верхняя 
[Ci fib]
+23.4 +14.7 58 +31  1014.6  0.7  758  278    +29.6       
21 19.09.10 тихо ()   10 км    ясно 
+20.4 +15.5 73 +30  1014.5  -0.1  758  281           
00 20.09.10 тихо ()   10 км    ясно 
+17.7 +15.3 86 +27  1014.4  -0.2  758  284           
03 20.09.10 тихо ()   10 км    8/0 верхняя 
[Ci fib]
+16.6 +15.1 91 +25  1014.6  0.2  758  285           
06 20.09.10 060 (СВ) 10 км    10/0 верхняя 
[Ci]
+21 +16 73 +31  1014.5  758  280  +16.3         
09 20.09.10 120 (ЮВ) 10 км    10/0 верхняя 
[Ci]
+28 +14.4 43 +35  1013.5  -1  758  274           
12 20.09.10 150 (ЮВ) 10 км    10/0 верхняя 
[Ci]
+30.4 +10.5 29 +32  1012.1  -1.3  757  273           
15 20.09.10 150 (ЮВ) 10 км    10/0 верхняя 
[Ci]
+29.3 +12.3 35 +33  1011.6  -0.5  756  273           
18 20.09.10 тихо ()   10 км    6/0 верхняя 
[Ci]
+23 +15.7 63 +33  1011.7  756  278    +31       
21 20.09.10 тихо ()   10 км    6/0 верхняя 
[Ci]
+21.8 +13.1 58 +27  1011.8  0.1  756  280           
00 21.09.10 тихо ()   10 км    10/0 верхняя 
[Ci]
+19.1 +15.6 80 +29  1012  0.2  756  282           
03 21.09.10 тихо ()   10 км    10/0 верхняя 
[Ci]
+17.4 +13.9 80 +24  1012.6  0.5  757  284           
06 21.09.10 210 (ЮЗ) 10 км    6/0 верхняя 
[Ci fib]
+23 +17.7 72 +36  1013.2  0.7  757  277  +17.2         
09 21.09.10 290 (З) 10 км    10/0 средняя, верхняя 
[Ac trans|Ci]
+30.1 +14.8 39 +38  1012.8  -0.3  757  272           
12 21.09.10 240 (ЮЗ) 10 км    10/3 1000 м средняя, верхняя 
[Cu hum|Ac trans|Ci fib]
+32.3 +14.1 33 +39  1012.7  -0.1  757  270           
15 21.09.10 240 (ЮЗ) 10 км    9/0 средняя, верхняя 
[Ac cast|Ci fib]
+28.3 +14.2 42 +35  1013  0.2  757  274           
18 21.09.10 270 (З) 10 км    3/0 средняя 
[Ac trans]
+24.6 +15.3 56 +34  1013.9  0.9  758  277    +32.7       
00 22.09.10 230 (ЮЗ) 10 км    10/0 средняя, верхняя 
[Ac trans|Ci]
+19.7 +16.4 81 +32  1015.1  0.5  759  282           
03 22.09.10 230 (ЮЗ) 10 км    10/8 1000 м средняя 
[Sc|Ac und]
+20 +17.2 84 +32  1015.6  0.5  759  281           
06 22.09.10 320 (СЗ) 10 км    10/5 1500 м средняя, верхняя 
[Sc|Ac trans|Ci fib]
+21.1 +17.5 80 +34  1016.3  0.7  760  280  +19.4         
09 22.09.10 270 (З) 10 км    10/6 1000 м кучево-дожд., средняя 
[Cb cap|Ac und]
+23.5 +16.7 66 +35  1017.4  1.1  761  279           
12 22.09.10 310 (СЗ) 10 км  {ливн. осадки}  10/4 1000 м кучево-дожд., средняя, верхняя 
[Cb cap|Ac trans|Cs]
+22.9 +16.5 67 +34  1017.5  0.1  761  279           
15 22.09.10 310 (СЗ) 10 км    10/3 1000 м кучево-дожд., средняя, верхняя 
[Cb cap|Ac cast|Ci fib]
+22.6 +15.9 66 +32  1017.4  -0.1  761  280           
18 22.09.10 330 (СЗ) 10 км    10/6 1000 м кучево-дожд., средняя, верхняя 
[Cb cap|As trans|Ci fib]
+20.6 +15.2 71 +29  1018.6  1.1  761  282    +24.2  0.3     
21 22.09.10 330 (СЗ) 4000 м  гроза, ливневой дождь  10/10 1000 м кучево-дожд. 
[Cb cap]
+18 +15.4 85 +28  1019.3  0.7  762  285           
00 23.09.10 010 (С) 10 км  {гроза, ливн. осадки}  10/6 1000 м кучево-дожд., средняя 
[Cb cap|Ac und]
+17.4 +13.9 80 +24  1019.5  0.2  762  286           
03 23.09.10 010 (С) 10 км    10/5 1000 м кучево-дожд., средняя, верхняя 
[Cb cap|Ac trans|Ci fib]
+15.3 +10.2 72 +18  1020.1  0.6  762  289           
06 23.09.10 020 (С) 10 км    4/0 средняя, верхняя 
[Ac trans|Ci fib]
+15.8 +10.2 69 +17  1021.2  1.1  763  289  +14.8       
09 23.09.10 190 (Ю) 10 км    ясно 
+20.4 +8.4 46 +20  1021.1  -0.1  763  285           
12 23.09.10 330 (СЗ) 10 км    1/1 1000 м 
[Cu hum]
+23 +5.9 33 +23  1020.3  -0.8  763  283           
15 23.09.10 010 (С) 10 км    ясно 
+21.6 +5 34 +22  1020.4  0.1  763  284           
18 23.09.10 010 (С) 10 км    ясно 
+17.6 +9.2 58 +18  1021.7  1.3  764  287    +23.3       
21 23.09.10 тихо ()   10 км    ясно 
+14.8 +8.9 68 +15  1022.2  0.5  764  291           
00 24.09.10 тихо ()   10 км    ясно 
+12.4 +9.9 85 +13  1022.3  764  293           
03 24.09.10 тихо ()   10 км  дымка  ясно 
+10.4 +8.8 90 +10  1022.3  764  295           
06 24.09.10 100 (В) 10 км    ясно 
+15.8 +9 64 +17  1022.7  0.5  764  290  +10         
09 24.09.10 090 (В) 10 км    ясно 
+21.1 +5.1 35 +21  1021.9  -0.8  764  285           
12 24.09.10 090 (В) 10 км    ясно 
+23.1 +7.1 36 +23  1020  -1.9  762  282           
15 24.09.10 090 (В) 10 км    ясно 
+22 +6.8 37 +22  1018.8  -1.2  761  283           
18 24.09.10 060 (СВ) 10 км    ясно 
+17 +7 52 +18  1019.1  0.3  762  288    +23.3       
21 24.09.10 070 (В) 10 км    ясно 
+16.2 +7.1 55 +17  1018.2  -0.9  761  288           
00 25.09.10 060 (СВ) 10 км    ясно 
+14.4 +8.2 66 +15  1017.3  -0.9  760  290           
03 25.09.10 090 (В) 10 км    1/0 верхняя 
[Ci]
+13.6 +8.4 71 +14  1016.7  -0.7  760  290           
06 25.09.10 120 (ЮВ) 10 км    5/0 верхняя 
[Ci]
+17.4 +9.7 61 +19  1016.3  -0.3  760  286  +13.6         
09 25.09.10 120 (ЮВ) 10 км    4/0 верхняя 
[Cc]
+23.3 +10.5 44 +25  1015  -1.2  759  280           
12 25.09.10 110 (В) 10 км    6/0 верхняя 
[Cc]
+27 +8.8 32 +27  1013.8  -1.2  758  276           
15 25.09.10 100 (В) 10 км    10/0 верхняя 
[Ci]
+25 +8.2 34 +25  1012.8  -1  757  278           
18 25.09.10 090 (В) 10 км    10/0 верхняя 
[Ci]
+21.8 +8.9 44 +22  1012.6  -0.2  757  281    +27.3       
21 25.09.10 090 (В) 10 км    10/0 средняя, верхняя 
[Ac trans|Ci]
+19.6 +9.9 53 +21  1012.6  757  283           
00 26.09.10 090 (В) 10 км    6/0 верхняя 
[Ci]
+17.6 +9.2 58 +18  1012.7  757  285           
03 26.09.10 100 (В) 10 км    3/0 верхняя 
[Ci fib]
+16.3 +9.7 65 +18  1013  0.3  757  286           
06 26.09.10 110 (В) 10 км    3/0 верхняя 
[Ci fib]
+18.8 +11.3 62 +22  1013.6  0.6  758  284  +16.1         
09 26.09.10 140 (ЮВ) 10 км    ясно 
+25.3 +14.8 52 +33  1013.9  0.4  758  276           
12 26.09.10 120 (ЮВ) 10 км    ясно 
+28.9 +15.9 45 +39  1013.5  -0.3  758  273           
15 26.09.10 110 (В) 10 км    ясно 
+27.4 +14.9 46 +36  1014  0.4  758  275           
18 26.09.10 130 (ЮВ) 10 км    ясно 
+22.9 +16.2 66 +33  1014.4  0.4  758  278    +29.4       
21 26.09.10 150 (ЮВ) 10 км    ясно 
+20.6 +15.1 71 +29  1014.7  0.3  758  281           
00 27.09.10 060 (СВ) 10 км    ясно 
+17.3 +14.7 85 +27  1014.9  0.1  759  284           
03 27.09.10 090 (В) 10 км    8/4 1000 м средняя 
[Sc|Ac cast]
+17 +15.1 89 +27  1015  0.1  759  285           
06 27.09.10 040 (СВ) 10 км    9/9 1000 м 
[Sc]
+18.6 +16.4 87 +31  1015.1  0.2  759  283  +16.2         
09 27.09.10 150 (ЮВ) 10 км    3/0 средняя 
[Ac trans]
+27 +16.4 52 +38  1015  -0.1  759  275           
12 27.09.10 180 (Ю) 10 км    3/0 верхняя 
[Ci fib]
+30.4 +18.1 48 +45  1013.7  -1.2  758  271           
15 27.09.10 190 (Ю) 10 км    3/0 верхняя 
[Cc]
+29 +16.4 47 +40  1013.1  -0.6  757  272           
18 27.09.10 тихо ()   10 км    ясно 
+23.3 +17.4 69 +36  1013.5  0.3  758  277    +30.4       
21 27.09.10 тихо ()   10 км    ясно 
+20.4 +16.1 76 +31  1012.8  -0.7  757  280           
00 28.09.10 260 (З) 10 км    6/0 средняя 
[Ac trans]
+18.6 +17.1 91 +32  1012.6  -0.2  757  282           
03 28.09.10 тихо ()   0200 м  туман  ?/?  
+19 +18.2 95 +33  1012.7  0.1  757  281           
06 28.09.10 240 (ЮЗ) 4000 м  дымка{туман}  10/6 300 м средняя, верхняя 
[St|Ac cast|Cc]
+22 +18.8 82 +38  1012.8  0.1  757  278  +18.6         
09 28.09.10 020 (С) 10 км    10/8 1000 м средняя 
[Sc|Ac und]
+23.2 +19.8 81 +41  1013  0.2  757  276           
12 28.09.10 020 (С) 10 км    9/8 1000 м средняя 
[Sc|Ac trans]
+25.7 +16.4 56 +37  1012.5  -0.5  757  275           
15 28.09.10 260 (З) 10 км    9/8 1000 м средняя 
[Sc|Ac trans]
+25.4 +16.3 57 +36  1012.4  -0.1  757  276           
18 28.09.10 200 (Ю) 10 км  дымка  8/0 средняя 
[Ac trans]
+22 +18.1 79 +36  1012.6  0.2  757  278    +27.1       
21 28.09.10 240 (ЮЗ) 10 км  дымка  10/6 1000 м средняя 
[Sc|Ac und]
+20.6 +17 80 +33  1012.7  0.1  757  280           
00 29.09.10 240 (ЮЗ) 10 км    6/0 средняя 
[Ac trans]
+20.7 +16.2 75 +31  1012.9  0.2  757  280           
03 29.09.10 тихо ()   10 км    10/4 1000 м верхняя 
[Sc|Ci fib]
+17.5 +15.7 89 +27  1013  757  283           
06 29.09.10 100 (В) 10 км    10/3 1500 м верхняя 
[Sc|Ci fib]
+21.1 +16.3 74 +32  1012.6  -0.3  757  280  +16.9         
09 29.09.10 140 (ЮВ) 10 км    10/3 1000 м верхняя 
[Cu hum|Ci fib]
+25.4 +14.8 52 +33  1012  -0.6  756  276           
12 29.09.10 230 (ЮЗ) 10 км    10/3 1000 м кучево-дожд., средняя, верхняя 
[Cb cap|Ac trans|Ci fib]
+26.6 +14.9 49 +35  1010.6  -1.4  755  274           
15 29.09.10 230 (ЮЗ) 10 км    10/5 1000 м кучево-дожд., средняя 
[Cb cap|Ac und]
+25.2 +15.9 56 +35  1010.4  -0.2  755  275           
18 29.09.10 240 (ЮЗ) 10 км    10/6 1000 м кучево-дожд., средняя 
[Cb cap|Ac und]
+23 +13.7 56 +29  1010.6  0.2  755  278    +28.2       
21 29.09.10 190 (Ю) 10 км    6/3 1000 м кучево-дожд., верхняя 
[Cb cap|Ci fib]
+19.8 +16.1 79 +31  1010.1  -0.5  755  280           
00 30.09.10 тихо ()   10 км    9/5 1000 м кучево-дожд., средняя 
[Cb cap|Ac trans]
+18.5 +16 85 +29  1009  -1.2  754  281           
03 30.09.10 090 (В) 10 км    9/5 1000 м кучево-дожд., средняя 
[Cb cap|Ac trans]
+18.2 +16.4 89 +31  1007.1  -1.9  753  281           
06 30.09.10 140 (ЮВ) 10 км  в посл. час ливневой дождь  10/8 1000 м кучево-дожд., средняя 
[Cb cap|Ac und]
+19 +17.5 91 +33  1004.7  -2.3  751  279  +18.2         
09 30.09.10 150 (ЮВ) 10 км    10/8 1000 м кучево-дожд., средняя, верхняя 
[Cb cap|Ac trans|Ci fib]
+22.5 +17.5 73 +36  1002.2  -2.5  749  275           
12 30.09.10 150 (ЮВ) 10 км  слаб. ливневой дождь{гроза}  10/10 1000 м кучево-дожд. 
[Cb cap]
+20.3 +18.9 92 +37  1002.4  0.2  749  277           
15 30.09.10 240 (ЮЗ) 10 км  {ливн. осадки}  9/9 1000 м кучево-дожд. 
[Cb cap]
+21.3 +12.7 58 +26  1003.9  1.5  750  278           
18 30.09.10 240 (ЮЗ) 10 км  {ливн. осадки}  3/3 1500 м 
[Sc]
+17 +12.3 74 +21  1007.5  3.5  753  283    +24.6  10     
21 30.09.10 240 (ЮЗ) 10 км    ясно 
+15.6 +9.7 68 +16  1009.4  1.9  754  286           
00 01.10.10 270 (З) 10 км    ясно 
+14 +9 72 +13  1011  1.5  756  288           
03 01.10.10 260 (З) 10 км    ясно 
+13.6 +8.4 71 +13  1012.3  1.3  757  289           
06 01.10.10 270 (З) 10 км    9/6 1000 м средняя 
[Sc|Ac trans]
+16.2 +10.4 68 +19  1012.9  0.7  757  286  +13.5         
09 01.10.10 250 (З) 10 км  в посл. час ливневой дождь  4/4 1000 м 
[Cu med, cong]
+18.2 +13.4 74 +25  1013.4  0.5  757  283           
12 01.10.10 250 (З) 10 км  в посл. час ливневой дождь  10/10 1000 м кучево-дожд. 
[Cb cap]
+15.6 +13.4 87 +22  1013.5  0.1  758  286           
15 01.10.10 270 (З) 10 км  слаб. ливневой дождь  9/9 600 м кучево-дожд. 
[Cb cap]
+17.3 +12.2 72 +22  1014.3  0.8  758  285           
18 01.10.10 300 (СЗ) 10 км  {ливн. осадки}  ?/? 600 
[Cb cap]
+15 +10.3 74 +17  1015.9  1.6  759  288    +19.4     
21 01.10.10 330 (СЗ) 10 км    10/10 600 м кучево-дожд. 
[Cb cap]
+13.8 +10.7 82 +16  1016.9  0.9  760  290           
00 02.10.10 320 (СЗ) 10 км  {ливн. осадки}  9/9 1000 м кучево-дожд. 
[Cb cap]
+12 +9.7 86 +13  1017.7  0.8  761  292           
03 02.10.10 тихо ()   10 км  дымка  6/0 1000 м верхняя 
[Ci]
+10.2 +9 92 +10  1017.9  0.2  761  294           
06 02.10.10 060 (СВ) 10 км    10/5 600 м кучево-дожд., верхняя 
[Cb cap|Ci fib]
+12.4 +9 80 +14  1018.9  761  292  +9.7    0.8     
09 02.10.10 330 (СЗ) 10 км    10/9 1000 м кучево-дожд., верхняя 
[Cb cap|Ci fib]
+14.2 +8.6 69 +15  1019.2  0.5  762  290           
Время (UTC), дата Ветер
(°,м/с) 
Видим.   Явления Облачность Т
(°С)
Тd
(°С)
f(%) Тe
(°С)
Pmin
(гПа)
dP
(гПа)
Po
(мм)
O2
(г/м3)
Тmin Tmax R s Состояние
почвы